Hodges, SC

7:06 AM EST on March 04, 2015 (GMT -0500)
Cherokee Hills | Change Station
CLOSE
Current Station
Personal Weather Station
Location: Greenwood, SC
Elevation: 554 ft
Nearby Weather Stations
Active Advisory: Dense Fog Advisory

Elev 554 ft 34.24 °N, 82.17 °W | Updated 7 seconds ago

Fog
Fog
46.9 °F
Feels Like 47 °F
N
1.0
Wind Variable Wind from West
Gusts 3.0 mph

Today
High -- | Low -- °F
--% Chance of Precip.
Yesterday
High -- | Low -- °F
Precip. -- in
6:54 AM 6:27 PM
Waxing Gibbous, 99% visible
Pressure 30.07 in
Visibility 0.5 miles
Clouds
Windchill 47 °F
Dew Point 46 °F
Humidity 97%
Rainfall 0.02 in
Snow Depth Not available.
UV Not available.
Pollen .40 out of 12
Air Quality Not available.
Flu Activity Not available.
METAR KGRD 041156Z AUTO 26005KT 1/2SM FG VV002 09/08 A3006 RMK AO2 SLP181 60004 70014 T00890083 10089 20072 53002

More Conditions Fewer Conditions

Pressure 30.07 in
Visibility 0.5 miles
Clouds
Windchill 47 °F
Dew Point 46 °F
Humidity 97%
Rainfall 0.02 in
Snow Depth Not available.
UV Not available.
Pollen .40 out of 12
Air Quality Not available.
Flu Activity Not available.
METAR KGRD 041156Z AUTO 26005KT 1/2SM FG VV002 09/08 A3006 RMK AO2 SLP181 60004 70014 T00890083 10089 20072 53002

More Conditions Fewer Conditions

10-Day Weather Forecast

Almanac

Astronomy

Mar. 04, 2015 Rise Set
Actual Time
Civil Twilight
Nautical Twilight
Astronomical Twilight
Moon
Length of Visible Light
Length of Day
Tomorrow will be .
, % of the Moon is Illuminated

Today's Extremes

State Highs State Lows

Community

WunderPhotos

Upload Photos

1,802,436 photos uploaded!

WunderBlogs® & News

Nearby

Air Quality

  Air Quality AQ Index Pollutant
Not available.

Snow Depth

Station Depth Elevation

Earthquake Activity

City Distance Mag. Time & Date
Minimum magnitude displayed is 2.5.

Coastal Water Temperatures

Place Temperature

Nearby Weather Stations

Dense Fog Advisory
Statement as of 6:52 AM EST on March 04, 2015

... Dense fog advisory remains in effect until 10 am EST this
morning...

* locations... the Piedmont and foothills of the Carolinas and
northeast Georgia.

* Visibility... one quarter mile or less at times.

* Impacts... dense fog will lower visibility to the Point of
making driving conditions hazardous.

Precautionary/preparedness actions...

A dense fog advisory means visibilities will frequently be
reduced to less than one quarter mile. If driving... slow down...
use your headlights... and leave plenty of distance ahead of you.


Lane